Location: Wingville
(42.9917°N, 90.4915°W)
Time: 14:52:21
(UTC+00:00)

EO-79 - Pass Details

Date: 28 June 2022
Orbit: 588 x 603 km, 98.0° (Epoch: 18 August)

Event Time Altitude Azimuth Distance (km) Brightness Sun altitude
Rises 08:30:00 0° 2° (N) 2,852 ? -15.8°
Reaches altitude 10° 08:32:21 10° 353° (N) 1,948 ? -15.6°
Maximum altitude 08:36:04 31° 291° (WNW) 1,069 ? -15.2°
Enters shadow 08:37:57 21° 248° (WSW) 1,352 ? -15.0°
